Regional Weather Roundup
Issued by NWS Little Rock, AR

Home | Current Version | Previous Version | Graphics & Text | Print | Product List | Glossary On
Versions: 1 2 3 4 5 6 7 8 9 10 11 12 13 14 15 16 17 18 19 20 21 22 23 24 25 26 27
000
ASUS44 KLZK 191205
RWRLZK

WEATHER ROUNDUP FOR ARKANSAS
NATIONAL WEATHER SERVICE LITTLE ROCK AR
700 AM CDT SAT APR 19 2014

NOTE: "FAIR" INDICATES FEW OR NO CLOUDS BELOW 12,000 FEET WITH NO
SIGNIFICANT WEATHER AND/OR OBSTRUCTIONS TO VISIBILITY.

ARZ001-003-010-029-191300-
NORTHWEST ARKANSAS

CITY           SKY/WX    TMP DP  RH WIND       PRES   REMARKS
FAYETTEVILLE   CLEAR     42  42 100 CALM      30.22R
6HR MIN TEMP:  41; 6HR MAX TEMP:  52;

FORT SMITH     CLEAR     50  46  86 NE3       30.20R
6HR MIN TEMP:  50; 6HR MAX TEMP:  59;

HARRISON       CLEAR     49  41  74 CALM      30.23R
6HR MIN TEMP:  47; 6HR MAX TEMP:  56;

BENTONVILLE    CLEAR     48  41  76 SE7       30.22R
6HR MIN TEMP:  48; 6HR MAX TEMP:  55;

ROGERS         CLEAR     51  46  83 E9        30.22R
6HR MIN TEMP:  49; 6HR MAX TEMP:  57;

SILOAM SPGS    CLEAR     48  37  66 E3        30.21S
6HR MIN TEMP:  48; 6HR MAX TEMP:  55;

HIGHFILL       CLEAR     45  41  86 CALM      30.20R
6HR MIN TEMP:  43; 6HR MAX TEMP:  53;

SPRINGDALE     CLEAR     46  43  87 SE5       30.23R
$$

ARZ004-005-016-191300-
NORTH CENTRAL ARKANSAS

CITY           SKY/WX    TMP DP  RH WIND       PRES   REMARKS
BATESVILLE     CLEAR     46  45  93 NW7       30.23R
6HR MIN TEMP:  46; 6HR MAX TEMP:  54;

FLIPPIN        CLEAR     45  36  70 CALM      30.24R
6HR MIN TEMP:  45; 6HR MAX TEMP:  54;

MTN HOME       CLEAR     50  41  71 CALM      30.23R
6HR MIN TEMP:  47; 6HR MAX TEMP:  57;

$$

ARZ040-041-191300-
WEST CENTRAL ARKANSAS

CITY           SKY/WX    TMP DP  RH WIND       PRES   REMARKS
MENA           CLEAR     45 N/A N/A CALM      30.21R
MOUNT IDA      CLEAR     43  42  97 CALM      30.18R
6HR MIN TEMP:  43; 6HR MAX TEMP:  50;

$$

ARZ009-017-025-026-028-191300-
NORTHEAST ARKANSAS

CITY           SKY/WX    TMP DP  RH WIND       PRES   REMARKS
CORNING        FAIR      52  43  71 N6        30.23R
JONESBORO      CLEAR     52  44  74 NE3       30.21R
6HR MIN TEMP:  49; 6HR MAX TEMP:  55;

NEWPORT        CLEAR     50  47  89 W7        30.23R
6HR MIN TEMP:  48; 6HR MAX TEMP:  57;

WALNUT RIDGE   CLEAR     48  43  81 N6        30.22R
6HR MIN TEMP:  48; 6HR MAX TEMP:  55;

BLYTHEVILLE    CLEAR     49  47  93 NE3       30.21R
6HR MIN TEMP:  48; 6HR MAX TEMP:  54;

$$

ARZ022-023-033-042-044-191300-
CENTRAL ARKANSAS

CITY           SKY/WX    TMP DP  RH WIND       PRES   REMARKS
LITTLE ROCK    PTCLDY    51  48  89 CALM      30.22R
6HR MIN TEMP:  51; 6HR MAX TEMP:  57;

N LITTLE ROCK    N/A     53  52  96 CALM      30.22R
6HR MIN TEMP:  52; 6HR MAX TEMP:  60;

JACKSONVILLE   CLEAR     47  46  95 W1        30.22R
6HR MIN TEMP:  46; 6HR MAX TEMP:  51;

SEARCY         CLEAR     48  47  97 CALM      30.23R
6HR MIN TEMP:  47; 6HR MAX TEMP:  53;

HOT SPRINGS    CLEAR     47  44  90 CALM      30.22R
6HR MIN TEMP:  46; 6HR MAX TEMP:  53;

RUSSELLVILLE   CLEAR     46  44  93 CALM      30.21R FOG
6HR MIN TEMP:  46; 6HR MAX TEMP:  51;

CLINTON        FAIR      43  43 100 CALM      30.25R FOG
$$

ARZ036-191300-
EAST ARKANSAS

CITY           SKY/WX    TMP DP  RH WIND       PRES   REMARKS
WEST MEMPHIS   CLEAR     52  52 100 CALM      30.20R
6HR MIN TEMP:  51; 6HR MAX TEMP:  55;

$$

ARZ050-053-066-070-073-191300-
SOUTHWEST ARKANSAS

CITY           SKY/WX    TMP DP  RH WIND       PRES   REMARKS
ARKADELPHIA    FAIR      48  48 100 CALM      30.22R
6HR MIN TEMP:  48; 6HR MAX TEMP:  53;

CAMDEN         CLEAR     46  45  93 MISG      30.21R FOG
TEXARKANA      CLEAR     51  48  89 E5        30.18R
6HR MIN TEMP:  49; 6HR MAX TEMP:  56;

EL DORADO      CLEAR     47  46  97 CALM      30.20R
6HR MIN TEMP:  47; 6HR MAX TEMP:  53;

DE QUEEN       CLEAR     46  45  96 CALM      30.18R FOG
6HR MIN TEMP:  45; 6HR MAX TEMP:  50;

$$

ARZ056-057-069-191300-
SOUTHEAST ARKANSAS

CITY           SKY/WX    TMP DP  RH WIND       PRES   REMARKS
PINE BLUFF     CLEAR     50  48  93 CALM      30.21R FOG
6HR MIN TEMP:  49; 6HR MAX TEMP:  56;

STUTTGART      CLEAR     52  48  87 N7        30.22R
6HR MIN TEMP:  52; 6HR MAX TEMP:  61;

MONTICELLO     CLEAR     51  49  92 CALM      30.20R FOG
6HR MIN TEMP:  49; 6HR MAX TEMP:  57; 6HR PCP: TRACE;


$$





USA.gov is the U.S. government's official web portal to all federal, state and local government web resources and services.